TimeEDT,TemperatureF,Dew PointF,Humidity,Sea Level PressureIn,VisibilityMPH,Wind Direction,Wind SpeedMPH,Gust SpeedMPH,PrecipitationIn,Events,Conditions,WindDirDegrees,DateUTC
12:53 AM,77.0,64.9,66,29.80,9.0,West,3.5,-,N/A,,Clear,260,2013-06-26 04:53:00
1:53 AM,72.0,66.0,81,29.79,8.0,Calm,Calm,-,N/A,,Mostly Cloudy,0,2013-06-26 05:53:00
2:53 AM,71.1,66.0,84,29.77,8.0,Calm,Calm,-,N/A,,Clear,0,2013-06-26 06:53:00
3:53 AM,71.1,66.0,84,29.78,7.0,SW,3.5,-,N/A,,Clear,230,2013-06-26 07:53:00
4:53 AM,73.0,66.0,79,29.78,9.0,WSW,6.9,-,N/A,,Clear,250,2013-06-26 08:53:00
5:53 AM,73.0,66.0,79,29.80,7.0,WSW,5.8,-,N/A,,Clear,250,2013-06-26 09:53:00
6:53 AM,73.9,66.0,76,29.81,7.0,WSW,8.1,-,N/A,,Clear,250,2013-06-26 10:53:00
7:53 AM,73.9,66.0,76,29.83,8.0,WSW,4.6,-,N/A,,Clear,250,2013-06-26 11:53:00
8:53 AM,77.0,64.9,66,29.83,9.0,Variable,5.8,-,N/A,,Clear,0,2013-06-26 12:53:00
9:53 AM,78.1,64.9,64,29.83,10.0,WSW,9.2,-,N/A,,Clear,250,2013-06-26 13:53:00
10:53 AM,77.0,64.0,64,29.83,10.0,WNW,4.6,-,N/A,,Clear,290,2013-06-26 14:53:00
11:53 AM,77.0,64.9,66,29.83,9.0,WSW,11.5,-,N/A,,Clear,250,2013-06-26 15:53:00
12:53 PM,78.1,66.9,68,29.85,10.0,WSW,6.9,-,0.00,,Scattered Clouds,240,2013-06-26 16:53:00
1:53 PM,77.0,66.9,71,29.85,10.0,SW,5.8,-,0.00,Rain,Light Rain,230,2013-06-26 17:53:00
2:53 PM,80.1,66.9,64,29.83,10.0,WSW,9.2,-,0.00,,Clear,240,2013-06-26 18:53:00
3:53 PM,79.0,66.9,66,29.83,10.0,WSW,9.2,-,N/A,,Clear,250,2013-06-26 19:53:00
4:53 PM,79.0,66.9,66,29.82,10.0,WSW,8.1,-,N/A,,Clear,240,2013-06-26 20:53:00
5:53 PM,78.1,66.9,68,29.82,10.0,WSW,3.5,-,N/A,,Partly Cloudy,240,2013-06-26 21:53:00
6:53 PM,75.0,69.1,82,29.82,5.0,Calm,Calm,-,0.00,Rain,Light Rain,0,2013-06-26 22:53:00
7:53 PM,73.0,70.0,90,29.83,5.0,Calm,Calm,-,0.02,Rain,Light Rain,0,2013-06-26 23:53:00
8:53 PM,73.0,68.0,84,29.81,9.0,South,4.6,-,0.02,,Mostly Cloudy,180,2013-06-27 00:53:00
9:53 PM,71.1,68.0,90,29.83,6.0,Calm,Calm,-,N/A,,Scattered Clouds,0,2013-06-27 01:53:00
10:40 PM,69.8,66.2,88,29.85,2.0,Calm,Calm,-,N/A,,Clear,0,2013-06-27 02:40:00
10:50 PM,69.8,66.2,88,29.86,4.0,Calm,Calm,-,N/A,,Clear,0,2013-06-27 02:50:00
10:53 PM,70.0,66.9,90,29.85,4.0,Calm,Calm,-,N/A,,Clear,0,2013-06-27 02:53:00
11:53 PM,69.1,66.9,93,29.84,5.0,Calm,Calm,-,N/A,,Clear,0,2013-06-27 03:53:00